| time (UTC) | temp F | wind direction | speed MPH | gust MPH | rain 1hr in | rain 24hr in | rain mn in | humidity % | barometer mb |
| 20260505074004 | 66 | 135 | 2.0 | 4.0 | 0.00 | 0.00 | 0.00 | 44 | 1008.0 |
| 20260505073005 | 66 | 126 | 3.0 | 8.0 | 0.00 | 0.00 | 0.00 | 44 | 1008.0 |
| 20260505072003 | 65 | 120 | 3.0 | 5.0 | 0.00 | 0.00 | 0.00 | 44 | 1009.0 |
| 20260505071008 | 65 | 120 | 2.0 | 5.0 | 0.00 | 0.00 | 0.00 | 44 | 1009.0 |
| 20260505070005 | 64 | 121 | 3.0 | 6.0 | 0.00 | 0.00 | 0.00 | 42 | 1009.0 |
| 20260505065004 | 64 | 116 | 3.0 | 5.0 | 0.00 | 0.00 | 0.00 | 42 | 1009.0 |
| 20260505064003 | 63 | 111 | 3.0 | 5.0 | 0.00 | 0.00 | 0.00 | 42 | 1009.0 |
| 20260505063008 | 63 | 115 | 3.0 | 6.0 | 0.00 | 0.00 | 0.00 | 43 | 1009.0 |
| 20260505062003 | 62 | 123 | 3.0 | 5.0 | 0.00 | 0.00 | 0.00 | 45 | 1009.0 |
| 20260505061004 | 62 | 128 | 3.0 | 6.0 | 0.00 | 0.00 | 0.00 | 46 | 1009.0 |
| 20260505060009 | 61 | 116 | 3.0 | 5.0 | 0.00 | 0.00 | 0.00 | 49 | 1009.0 |
| 20260505055004 | 60 | 120 | 3.0 | 5.0 | 0.00 | 0.00 | 0.00 | 52 | 1009.0 |
| 20260505054003 | 60 | 114 | 3.0 | 5.0 | 0.00 | 0.00 | 0.00 | 56 | 1009.0 |
| 20260505053004 | 59 | 119 | 4.0 | 6.0 | 0.00 | 0.00 | 0.00 | 62 | 1009.0 |
| 20260505052005 | 58 | 120 | 3.0 | 5.0 | 0.00 | 0.00 | 0.00 | 69 | 1009.0 |
| 20260505051004 | 58 | 124 | 3.0 | 5.0 | 0.00 | 0.00 | 0.00 | 72 | 1009.0 |
| 20260505041004 | 54 | 116 | 2.0 | 4.0 | 0.00 | 0.00 | 0.00 | 79 | 1009.0 |
| 20260505040007 | 54 | 108 | 2.0 | 3.0 | 0.00 | 0.00 | 0.00 | 79 | 1009.0 |
| 20260505035004 | 53 | 113 | 2.0 | 4.0 | 0.00 | 0.00 | 0.00 | 79 | 1009.0 |
| 20260505034004 | 53 | 107 | 2.0 | 4.0 | 0.00 | 0.00 | 0.00 | 79 | 1009.0 |
| 20260505033005 | 53 | 113 | 3.0 | 4.0 | 0.00 | 0.00 | 0.00 | 79 | 1009.0 |
| 20260505032005 | 53 | 110 | 2.0 | 4.0 | 0.00 | 0.00 | 0.00 | 79 | 1009.0 |
| 20260505031007 | 53 | 102 | 2.0 | 3.0 | 0.00 | 0.00 | 0.00 | 78 | 1009.0 |
| 20260505030007 | 53 | 90 | 1.0 | 2.0 | 0.00 | 0.00 | 0.00 | 78 | 1009.0 |
| 20260505025003 | 55 | 105 | 2.0 | 4.0 | 0.00 | 0.00 | 0.00 | 78 | 1009.0 |
| 20260505024002 | 55 | 90 | 2.0 | 4.0 | 0.00 | 0.00 | 0.00 | 78 | 1009.0 |
| 20260505023002 | 55 | 99 | 3.0 | 4.0 | 0.00 | 0.00 | 0.00 | 77 | 1009.0 |
| 20260505022002 | 56 | 104 | 2.0 | 3.0 | 0.00 | 0.00 | 0.00 | 77 | 1009.0 |
| 20260505021002 | 56 | 105 | 2.0 | 3.0 | 0.00 | 0.00 | 0.00 | 76 | 1009.0 |
| 20260505020003 | 56 | 114 | 2.0 | 3.0 | 0.00 | 0.00 | 0.00 | 76 | 1009.0 |
| 20260505015003 | 56 | 113 | 3.0 | 4.0 | 0.00 | 0.00 | 0.00 | 76 | 1009.0 |
| 20260505014002 | 57 | 111 | 3.0 | 4.0 | 0.00 | 0.00 | 0.00 | 75 | 1009.0 |
| 20260505013002 | 57 | 113 | 3.0 | 4.0 | 0.00 | 0.00 | 0.00 | 75 | 1009.0 |
| 20260505012002 | 57 | 115 | 3.0 | 4.0 | 0.00 | 0.00 | 0.00 | 75 | 1009.0 |
| 20260505011002 | 57 | 110 | 2.0 | 4.0 | 0.00 | 0.00 | 0.00 | 75 | 1009.0 |
| 20260505010003 | 57 | 119 | 3.0 | 5.0 | 0.00 | 0.00 | 0.00 | 74 | 1009.0 |
| 20260505005002 | 57 | 112 | 3.0 | 4.0 | 0.00 | 0.00 | 0.00 | 74 | 1009.0 |
| 20260505004002 | 57 | 107 | 2.0 | 3.0 | 0.00 | 0.00 | 0.00 | 73 | 1009.0 |
| 20260505003002 | 58 | 115 | 2.0 | 3.0 | 0.00 | 0.00 | 0.00 | 73 | 1009.0 |
| 20260505002002 | 58 | 109 | 2.0 | 4.0 | 0.00 | 0.00 | 0.00 | 72 | 1009.0 |
| 20260505001002 | 58 | 112 | 2.0 | 4.0 | 0.00 | 0.00 | 0.00 | 72 | 1009.0 |
| 20260505000003 | 58 | 112 | 3.0 | 4.0 | 0.00 | 0.00 | 0.00 | 71 | 1009.0 |
| 20260504235002 | 58 | 113 | 3.0 | 4.0 | 0.00 | 0.00 | 0.00 | 71 | 1009.0 |
| 20260504234002 | 59 | 119 | 2.0 | 4.0 | 0.00 | 0.00 | 0.00 | 70 | 1009.0 |
| 20260504233002 | 59 | 113 | 3.0 | 6.0 | 0.00 | 0.00 | 0.00 | 70 | 1009.0 |
| 20260504232003 | 60 | 111 | 3.0 | 5.0 | 0.00 | 0.00 | 0.00 | 69 | 1009.0 |
| 20260504231002 | 60 | 118 | 3.0 | 6.0 | 0.00 | 0.00 | 0.00 | 69 | 1009.0 |
| 20260504230005 | 60 | 116 | 3.0 | 6.0 | 0.00 | 0.00 | 0.00 | 69 | 1009.0 |
| 20260504225002 | 61 | 113 | 3.0 | 6.0 | 0.00 | 0.00 | 0.00 | 68 | 1009.0 |
| 20260504224003 | 61 | 110 | 3.0 | 6.0 | 0.00 | 0.00 | 0.00 | 68 | 1009.0 |
| 20260504223002 | 61 | 111 | 4.0 | 7.0 | 0.00 | 0.00 | 0.00 | 66 | 1009.0 |
| 20260504222002 | 62 | 113 | 4.0 | 8.0 | 0.00 | 0.00 | 0.00 | 65 | 1009.0 |
| 20260504221003 | 62 | 112 | 4.0 | 6.0 | 0.00 | 0.00 | 0.00 | 64 | 1009.0 |
| 20260504220003 | 63 | 121 | 4.0 | 7.0 | 0.00 | 0.00 | 0.00 | 62 | 1009.0 |
| 20260504215002 | 63 | 112 | 3.0 | 6.0 | 0.00 | 0.00 | 0.00 | 59 | 1009.0 |
| 20260504214002 | 63 | 119 | 4.0 | 8.0 | 0.00 | 0.00 | 0.00 | 58 | 1009.0 |
| 20260504213002 | 63 | 113 | 4.0 | 8.0 | 0.00 | 0.00 | 0.00 | 55 | 1009.0 |
| 20260504212002 | 63 | 112 | 3.0 | 5.0 | 0.00 | 0.00 | 0.00 | 53 | 1009.0 |
| 20260504211002 | 62 | 75 | 2.0 | 6.0 | 0.00 | 0.00 | 0.00 | 54 | 1008.0 |
| 20260504210003 | 63 | 121 | 2.0 | 3.0 | 0.00 | 0.00 | 0.00 | 54 | 1008.0 |
| 20260504205002 | 63 | 120 | 2.0 | 3.0 | 0.00 | 0.00 | 0.00 | 53 | 1008.0 |
| 20260504204002 | 64 | 115 | 2.0 | 3.0 | 0.00 | 0.00 | 0.00 | 52 | 1008.0 |
| 20260504203002 | 64 | 119 | 2.0 | 3.0 | 0.00 | 0.00 | 0.00 | 52 | 1008.0 |
| 20260504202002 | 65 | 124 | 2.0 | 2.0 | 0.00 | 0.00 | 0.00 | 51 | 1008.0 |
| 20260504201002 | 65 | 109 | 2.0 | 2.0 | 0.00 | 0.00 | 0.00 | 49 | 1008.0 |
| 20260504200002 | 66 | 109 | 2.0 | 3.0 | 0.00 | 0.00 | 0.00 | 48 | 1008.0 |
| 20260504195003 | 66 | 114 | 2.0 | 3.0 | 0.00 | 0.00 | 0.00 | 47 | 1008.0 |
| 20260504194002 | 67 | 111 | 2.0 | 3.0 | 0.00 | 0.00 | 0.00 | 46 | 1008.0 |
| 20260504193002 | 68 | 111 | 2.0 | 3.0 | 0.00 | 0.00 | 0.00 | 45 | 1008.0 |
| 20260504192003 | 68 | 119 | 2.0 | 3.0 | 0.00 | 0.00 | 0.00 | 44 | 1008.0 |
| 20260504191002 | 69 | 122 | 2.0 | 2.0 | 0.00 | 0.00 | 0.00 | 43 | 1008.0 |
| 20260504190004 | 70 | 139 | 1.0 | 3.0 | 0.00 | 0.00 | 0.00 | 42 | 1008.0 |
| 20260504185002 | 71 | 130 | 1.0 | 2.0 | 0.00 | 0.00 | 0.00 | 41 | 1008.0 |
| 20260504184002 | 72 | 108 | 2.0 | 5.0 | 0.00 | 0.00 | 0.00 | 39 | 1008.0 |
| 20260504183002 | 72 | 102 | 2.0 | 2.0 | 0.00 | 0.00 | 0.00 | 38 | 1008.0 |
| 20260504182002 | 73 | 117 | 1.0 | 2.0 | 0.00 | 0.00 | 0.00 | 38 | 1008.0 |
| 20260504181002 | 74 | 122 | 1.0 | 2.0 | 0.00 | 0.00 | 0.00 | 37 | 1008.0 |
| 20260504180002 | 75 | 90 | 1.0 | 2.0 | 0.00 | 0.00 | 0.00 | 35 | 1008.0 |
| 20260504175002 | 76 | 45 | 1.0 | 3.0 | 0.00 | 0.00 | 0.00 | 35 | 1008.0 |
| 20260504174003 | 77 | 18 | 1.0 | 3.0 | 0.00 | 0.00 | 0.00 | 34 | 1008.0 |
| 20260504173002 | 77 | 90 | 1.0 | 3.0 | 0.00 | 0.00 | 0.00 | 34 | 1008.0 |
| 20260504172002 | 78 | 30 | 1.0 | 4.0 | 0.00 | 0.00 | 0.00 | 33 | 1008.0 |
| 20260504171003 | 78 | 296 | 2.0 | 4.0 | 0.00 | 0.00 | 0.00 | 33 | 1008.0 |
| 20260504151002 | 80 | 296 | 3.0 | 8.0 | 0.00 | 0.00 | 0.00 | 29 | 1008.0 |
| 20260504141003 | 81 | 270 | 2.0 | 4.0 | 0.00 | 0.00 | 0.00 | 29 | 1008.0 |
| 20260504082002 | 75 | 270 | 3.0 | 6.0 | 0.00 | 0.00 | 0.00 | 31 | 1010.0 |
| 20260504081002 | 73 | 284 | 3.0 | 5.0 | 0.00 | 0.00 | 0.00 | 30 | 1010.0 |